TIANMU-1 22

Last updated on Thu Oct 30 2025 00:02:23 GMT+0000 (Coordinated Universal Time)

1 58663U 23208D 25302.57890313 .00011369 00000+0 43774-3 0 9998 2 58663 97.4363 53.8251 0005217 83.0416 277.1415 15.26516687102099
UTC large
Height (km)
Speed (km/s)
/
Latitude / Longitude
Inclination (degrees)
Orbital Period (minutes)
Azimuth
Elevation
Range (km)
Doppler Factor

Next 0 passes for location: London (51.5072 / 0.1276)

Sorry there are no passes over London.